Location: Jonoux
(46.4941°N, 0.5683°E)
Time: 23:02:46
(UTC+00:00)

Daily predictions for brighter satellites

Satellite Brightness Start Highest point End
(mag) Time Altitude Azimuth Time Altitude Azimuth Time Altitude Azimuth
Cosmos 2016 Rocket 4.2 17:41:47 10° N 17:48:04 85° W 17:54:23 10° S
SAR-Lupe-5 3.9 17:52:00 10° NNE 17:54:29 80° ESE 17:56:53 10° SSW
NOSS 0 Rocket 4.0 17:49:14 10° NNW 17:55:31 90° NE 18:01:45 10° SSE
SeaSat 1 2.4 17:52:14 10° SE 17:57:07 74° ENE 18:02:01 10° NNW
Tiangong -0.3 17:54:36 10° SW 17:57:10 22° SSE 17:59:44 10° ESE
SJ-6B 4.3 17:56:25 10° E 17:58:08 13° ENE 17:59:51 10° NNE
IRS-P3 4.1 17:56:09 10° SSE 18:01:28 86° ENE 18:06:50 10° NNW
Cosmos 2233 Rocket 4.1 17:55:36 10° N 18:01:55 89° WSW 18:08:14 10° S
PSLV R/B 4.1 17:59:07 10° SE 18:02:50 33° ENE 18:06:32 10° N
Meteor 2-1 Rocket 4.3 17:57:43 10° N 18:03:36 82° E 18:09:31 10° SSE
Cosmos 1125 Rocket 3.5 17:58:54 10° NNW 18:04:07 84° ENE 18:09:20 10° SSE
NOSS 3-3 (C) 3.8 17:59:10 10° SW 18:04:21 80° NW 18:10:37 10° NE
Cosmos 2228 4.1 18:01:12 10° NNE 18:04:31 22° ENE 18:07:50 10° ESE
Cosmos 1356 Rocket 3.9 18:01:11 10° NNW 18:05:06 61° W 18:09:02 10° S
Cosmos 2285 Rocket 4.0 17:58:50 10° NNW 18:05:18 74° ENE 18:11:40 10° SSE
COSMO-SKYMED 1 2.9 18:01:59 10° NNE 18:05:52 39° E 18:09:44 10° SSE
Cosmos 1570 Rocket 4.3 18:01:11 10° S 18:06:13 49° ESE 18:11:17 10° NNE
CZ-2D R/B 3.5 18:03:49 10° SSE 18:07:36 50° ENE 18:11:31 10° N
Cosmos 2344 4.4 18:01:28 10° SSE 18:07:56 27° ESE 18:13:45 10° ENE
Cosmos 2151 Rocket 4.2 18:04:35 10° NNW 18:09:03 63° W 18:13:28 10° S
YAOGAN 1 2.5 18:07:31 10° SSE 18:11:44 68° ENE 18:15:59 10° N
Cosmos 2263 Rocket 3.5 18:08:30 10° SE 18:12:24 19° E 18:16:19 10° NE
Cosmos 1455 Rocket 3.3 18:08:16 10° N 18:12:25 45° ENE 18:16:33 10° SSE
Cosmos 1975 Rocket 3.9 18:10:12 10° SSE 18:13:51 27° E 18:17:29 10° NNE
Cosmos 1980 3.7 18:10:01 10° NNW 18:15:44 81° ENE 18:21:22 10° SSE
USA 234 3.6 18:09:54 10° SE 18:16:26 71° SW 18:23:00 10° NW
SAR-Lupe-1 4.2 18:13:02 10° S 18:16:36 79° WSW 18:20:11 10° NNW
Cosmos 2237 Rocket 2.2 18:15:11 10° NNW 18:20:54 82° ENE 18:26:36 10° SSE
COSMOS 2428 4.0 18:15:49 10° NW 18:21:14 45° WSW 18:26:37 10° S
Cosmos 773 Rocket 4.2 18:17:34 10° S 18:22:39 52° ESE 18:27:47 10° NNE
SJ-7 4.1 18:19:09 10° SSE 18:22:46 61° ENE 18:26:25 10° N
Spot 4 Rocket 3.9 18:18:24 10° SSE 18:23:28 71° ENE 18:28:33 10° N
NOAA 6 4.1 18:19:31 10° SSE 18:24:34 59° ENE 18:29:39 10° N
DNEPR-1 R/B 4.3 18:20:11 10° NNW 18:24:52 48° NE 18:30:28 10° ESE
ARIANE 5 R/B 4.1 18:23:25 10° SSW 18:28:10 38° W 18:32:53 10° NNW
Cosmos 2208 Rocket 4.1 18:23:31 10° S 18:28:36 55° ESE 18:33:47 10° NNE
Okean 1 Rocket 3.7 18:24:29 10° NNW 18:28:49 59° W 18:33:05 10° S
Meteor 1-27 4.2 18:24:53 10° N 18:30:41 70° ENE 18:36:29 10° SSE
CRYOSAT 2 4.4 18:29:50 10° NNE 18:34:39 55° E 18:39:26 10° S
Meteor 2-17 Rocket 4.4 18:29:14 10° S 18:35:07 57° E 18:41:02 10° NNE
Okean 2 Rocket 4.5 18:32:48 10° NNW 18:36:56 41° W 18:41:02 10° SSW
Cosmos 44 Rocket 3.3 18:32:41 10° SSW 18:37:35 75° ESE 18:42:35 10° NE
Cosmos 1346 Rocket 3.3 18:34:36 10° SSE 18:37:48 30° E 18:40:09 16° NE
Cosmos 2221 Rocket 4.5 18:35:02 10° SSW 18:39:24 53° WNW 18:43:50 10° N
Cosmos 1602 2.9 18:38:45 10° S 18:41:26 50° E 18:43:14 18° NNE
CZ-4C R/B 3.3 18:38:17 10° W 18:42:20 33° NNW 18:47:25 10° NNE
Cosmos 1464 Rocket 4.0 18:37:09 10° N 18:43:27 59° ENE 18:49:37 10° SSE
Cosmos 2227 Rocket 2.2 18:39:19 10° S 18:44:48 57° ESE 18:50:21 10° NNE
SL-16 R/B 2.6 18:42:05 10° NNW 18:47:27 42° NE 18:50:49 21° ESE
Helios 1A Rocket 3.4 18:49:53 27° SE 18:49:53 27° SE 18:51:56 10° SSE
NOSS 3-4 (A) 3.9 18:44:26 10° NW 18:51:15 89° SW 18:59:18 10° SE
NOSS 3-4 (C) 3.9 18:44:43 10° NW 18:51:33 89° SW 18:59:36 10° SE
Aureole 3 Rocket 4.0 18:50:27 10° NNW 18:53:54 38° W 18:56:49 10° SSW
Cosmos 2150 Rocket 3.8 18:49:49 10° NNW 18:55:00 82° ENE 19:00:08 10° SSE
Cosmos 2298 Rocket 3.9 18:53:45 10° NNW 18:59:04 84° ENE 19:04:22 10° SSE
Lacrosse 5 rocket 3.2 18:57:56 10° NW 19:00:09 15° N 19:01:16 14° NNE
CZ-4 R/B 3.2 19:02:50 15° NNE 19:02:50 15° NNE 19:03:49 10° NNE
Resurs 01 Rocket 1.7 18:59:17 10° S 19:03:40 76° WSW 19:08:06 10° NNW
BREEZE-M DEB (TANK) 4.0 19:02:03 10° SSW 19:05:52 44° SE 19:11:12 24° ENE
Cosmos 1782 2.3 19:03:51 10° N 19:07:27 77° E 19:09:32 23° SSE
CZ-4B R/B 4.2 19:12:00 26° NE 19:12:00 26° NE 19:15:37 10° N
Gbstr 26 Del rocket 4.4 19:04:54 10° SW 19:11:29 57° SE 19:15:03 31° ENE
CSL-04 Debris 4.3 19:12:11 32° ESE 19:14:21 49° ENE 19:19:34 10° N
ERS-1 Rocket 4.3 19:20:01 23° NNE 19:20:01 23° NNE 19:22:35 10° N
CSL-04 Rocket 3.6 19:17:14 32° SE 19:19:31 57° ENE 19:24:42 10° N
ARIANE 6 FM1 Upper Stage 2.9 19:18:00 10° NW 19:21:31 50° NNE 19:21:31 50° NNE
USA 267 4.1 19:17:49 19° NE 19:22:10 43° NNW 19:28:14 10° W
RESURS DK-1 4.4 19:23:39 10° N 19:24:45 15° N 19:24:45 15° N
Cosmos 2297 Rocket 3.8 19:24:30 10° WSW 19:29:36 34° NW 19:34:44 10° NNE
Cosmos 2058 2.9 19:26:41 10° S 19:29:54 60° S 19:29:54 60° S
SJ-6B 3.5 19:28:10 12° S 19:31:07 44° W 19:34:27 10° NNW
SPOT 5 2.8 19:31:23 53° SE 19:32:27 71° ENE 19:37:33 10° N
Tiangong -0.2 19:30:46 10° WSW 19:32:34 25° SW 19:32:34 25° SW
Cosmos 1943 3.8 19:28:52 10° NNW 19:33:43 37° NE 19:33:43 37° NE
Tsikada Rocket 3.9 19:28:27 10° S 19:34:28 61° E 19:40:33 10° NNE
Meteor 1-31 Rocket 4.4 19:40:27 22° NNW 19:40:27 22° NNW 19:41:48 10° NNW
Cosmos 1544 Rocket 3.8 19:40:56 10° NNW 19:45:15 67° W 19:46:04 53° SSW
Cosmos 2219 3.1 19:40:12 10° SSW 19:45:34 64° SE 19:45:34 64° SE
CZ-4B R/B 4.5 19:47:52 52° NW 19:47:52 52° NW 19:51:00 10° NNW
BREEZE M DEB (TANK) 4.4 19:34:27 10° SW 19:48:43 41° SSE 19:49:17 40° SE
ADEOS 4.3 19:53:50 40° NNE 19:53:50 40° NNE 19:57:19 10° N
Cosmos 2263 Rocket 2.4 19:50:01 10° SW 19:55:41 71° WNW 19:58:28 31° NNE
Orbus 7S? 4.4 19:50:19 10° NW 19:56:34 44° SW 19:56:52 44° SW
Feng Yun 1-1 Rocket 4.2 20:06:21 83° S 20:06:34 88° WSW 20:12:32 10° NNW
Terra 3.8 20:10:00 19° N 20:10:00 19° N 20:11:24 10° N
PAYLOAD B 4.2 20:08:29 77° NNW 20:08:29 77° NNW 20:13:42 10° NNW
Cosmos 1634 Rocket 3.9 20:02:04 10° N 20:08:26 88° W 20:09:11 71° S
Cosmos 2344 3.7 20:13:57 10° SW 20:21:39 66° NW 20:24:33 38° NNE
Cosmos 2227 Rocket 4.0 20:24:23 10° WSW 20:29:11 28° NW 20:33:22 13° N
Cosmos 2279 Rocket 4.5 20:23:07 10° N 20:27:37 51° N 20:27:37 51° N
SL-16 R/B 3.6 20:26:23 10° NW 20:31:26 34° WSW 20:32:45 31° SW
CZ-4C R/B 4.4 20:29:10 10° NW 20:32:31 16° N 20:33:37 16° N
CZ-4 R/B 4.4 20:37:50 10° NW 20:37:50 10° NW 20:37:54 10° NW
ATLAS 2AS CENTAUR R/B 4.3 20:55:24 10° NNW 20:59:11 24° N 20:59:11 24° N
USA 267 4.4 21:05:09 34° NNW 21:05:09 34° NNW 21:10:08 10° WNW
